Total_Precipitation_Accumulation
0.74 0.80 0.88 0.93 0.98 1.04 1.09 1.09 1.06 1.01 0.99 0.99 0.98 0.96 0.97 1.02 1.11 1.16 1.12 1.25 1.39 1.43 1.27 1.19 1.14 1.10 1.08 0.94 0.94 1.00 1.06 1.22 1.30 1.09 1.02 1.12 1.18 1.12 1.11 1.07 1.00 0.99 0.90
0.64 0.78 0.83 0.92 0.97 0.97 0.99 1.16 1.18 1.15 1.13 1.13 1.13 1.13 1.07 1.03 1.09 1.07 1.01 1.09 1.27 1.46 1.62 1.67 1.47 1.34 1.31 1.18 1.16 1.14 1.13 1.21 1.30 1.31 1.24 1.27 1.27 1.26 1.22 1.05 0.88 0.83 0.86
0.54 0.67 0.78 0.87 0.96 1.02 1.10 1.23 1.35 1.34 1.33 1.36 1.39 1.33 1.29 1.28 1.25 1.20 1.17 1.20 1.24 1.31 1.50 1.68 1.66 1.68 1.52 1.43 1.35 1.28 1.22 1.16 1.26 1.28 1.24 1.36 1.41 1.39 1.24 0.96 0.86 0.88 0.81
0.66 0.78 0.85 1.00 1.13 1.19 1.18 1.27 1.34 1.43 1.49 1.53 1.57 1.53 1.49 1.50 1.47 1.42 1.37 1.36 1.36 1.37 1.40 1.46 1.55 1.70 1.64 1.57 1.47 1.42 1.39 1.38 1.38 1.34 1.34 1.44 1.62 1.66 1.44 1.11 0.96 0.93 0.86
0.94 1.00 1.02 1.09 1.18 1.27 1.38 1.46 1.57 1.64 1.67 1.79 1.76 1.68 1.65 1.66 1.53 1.56 1.67 1.67 1.69 1.55 1.43 1.37 1.35 1.48 1.55 1.55 1.39 1.36 1.44 1.49 1.49 1.47 1.48 1.57 1.68 1.77 1.51 1.25 1.08 1.00 0.95
1.33 1.41 1.47 1.53 1.54 1.59 1.65 1.71 1.83 1.88 1.90 1.85 1.80 1.79 1.76 1.62 1.72 1.73 1.64 1.67 1.82 1.82 1.69 1.58 1.44 1.35 1.35 1.38 1.42 1.44 1.45 1.46 1.51 1.56 1.56 1.61 1.68 1.73 1.78 1.58 1.33 1.10 0.96
1.41 1.42 1.46 1.55 1.62 1.65 1.70 1.77 1.80 1.83 1.83 1.76 1.78 1.81 1.78 1.81 1.76 1.57 1.43 1.42 1.50 1.58 1.64 1.61 1.40 1.27 1.32 1.28 1.42 1.46 1.39 1.32 1.28 1.34 1.40 1.47 1.76 1.94 2.08 1.79 1.52 1.31 1.09
1.35 1.34 1.32 1.35 1.39 1.47 1.59 1.64 1.63 1.63 1.61 1.58 1.58 1.50 1.47 1.46 1.45 1.28 1.24 1.21 1.21 1.18 1.28 1.37 1.35 1.25 1.22 1.22 1.16 1.07 1.02 1.03 1.00 0.97 1.04 1.23 1.52 1.93 2.12 2.11 2.00 1.76 1.53
1.15 1.18 1.14 1.19 1.26 1.36 1.43 1.49 1.53 1.50 1.38 1.27 1.21 1.21 1.21 1.26 1.36 1.20 1.14 1.13 1.16 1.09 1.07 1.08 1.08 1.00 1.03 0.97 0.91 0.82 0.78 0.78 0.78 0.80 0.83 0.98 1.19 1.47 1.81 1.97 1.91 1.69 1.43
1.16 1.23 1.23 1.26 1.34 1.36 1.38 1.40 1.37 1.34 1.29 1.26 1.19 1.14 1.14 1.15 1.26 1.10 1.04 1.05 1.10 1.07 1.06 1.09 1.17 1.01 0.89 0.73 0.71 0.75 0.67 0.64 0.67 0.66 0.66 0.71 0.81 1.00 1.34 1.47 1.46 1.44 1.27
1.11 1.17 1.19 1.20 1.22 1.24 1.29 1.26 1.28 1.30 1.26 1.19 1.11 1.10 1.13 1.12 1.12 0.97 0.87 0.85 0.89 0.90 0.85 0.86 0.96 0.95 0.77 0.62 0.62 0.65 0.61 0.59 0.62 0.60 0.59 0.63 0.74 0.87 1.03 1.25 1.32 1.24 1.13
1.13 1.17 1.15 1.13 1.11 1.10 1.09 1.07 1.09 1.10 1.07 1.06 1.05 1.05 1.10 1.11 0.99 0.87 0.74 0.70 0.72 0.74 0.83 0.85 0.95 0.97 0.77 0.65 0.56 0.54 0.49 0.45 0.49 0.55 0.54 0.54 0.62 0.72 0.91 1.12 1.30 1.28 1.16
1.09 1.12 1.11 1.10 1.10 1.12 1.13 1.12 1.11 1.09 1.09 1.06 1.01 0.94 0.96 1.00 0.99 0.83 0.65 0.59 0.62 0.67 0.88 1.09 1.11 1.05 0.89 0.73 0.65 0.63 0.51 0.44 0.49 0.54 0.55 0.54 0.56 0.67 0.90 1.16 1.35 1.45 1.36
1.10 1.05 1.02 1.02 1.01 1.04 1.12 1.14 1.14 1.14 1.11 1.05 1.00 0.96 0.96 0.98 0.97 0.90 0.80 0.70 0.71 0.76 0.92 1.10 1.20 1.22 1.12 0.97 0.88 0.79 0.63 0.59 0.63 0.64 0.66 0.69 0.74 0.85 1.01 1.10 1.24 1.38 1.42
1.07 1.05 1.02 0.96 0.94 0.98 1.02 1.04 1.01 1.01 1.01 0.97 0.91 0.90 0.90 0.92 0.93 0.89 0.80 0.73 0.70 0.73 0.84 1.07 1.25 1.38 1.40 1.35 1.21 1.09 0.96 0.86 0.78 0.79 0.83 0.83 0.85 0.91 0.99 1.11 1.25 1.30 1.26
1.13 1.03 0.97 0.90 0.87 0.88 0.89 0.94 1.01 0.92 0.93 0.87 0.82 0.76 0.72 0.76 0.76 0.67 0.60 0.59 0.60 0.64 0.77 0.99 1.23 1.43 1.49 1.58 1.56 1.45 1.25 1.09 1.00 0.97 0.94 0.93 0.94 0.93 0.96 1.09 1.23 1.28 1.18
1.09 0.99 0.91 0.87 0.87 0.84 0.81 0.84 0.93 0.93 0.86 0.80 0.83 0.76 0.63 0.63 0.58 0.55 0.53 0.51 0.51 0.54 0.70 0.86 0.98 1.13 1.30 1.49 1.56 1.54 1.37 1.23 1.23 1.19 1.10 1.04 1.05 1.03 1.01 1.08 1.21 1.29 1.27
0.90 0.91 0.86 0.81 0.84 0.83 0.80 0.82 0.86 0.91 0.94 0.87 0.82 0.79 0.61 0.51 0.47 0.45 0.44 0.42 0.39 0.42 0.56 0.68 0.77 0.89 1.07 1.32 1.47 1.53 1.46 1.34 1.32 1.34 1.30 1.23 1.21 1.16 1.08 1.04 1.14 1.24 1.27
0.79 0.76 0.73 0.75 0.79 0.79 0.79 0.78 0.80 0.83 0.87 0.83 0.75 0.76 0.65 0.50 0.44 0.43 0.48 0.51 0.50 0.50 0.59 0.65 0.69 0.80 0.95 1.16 1.37 1.51 1.54 1.46 1.39 1.43 1.42 1.32 1.27 1.23 1.12 1.03 1.08 1.20 1.26
0.70 0.76 0.69 0.66 0.68 0.73 0.77 0.79 0.79 0.83 0.86 0.86 0.80 0.77 0.71 0.59 0.53 0.59 0.68 0.75 0.71 0.68 0.70 0.70 0.75 0.84 0.98 1.20 1.39 1.49 1.51 1.48 1.43 1.45 1.43 1.34 1.27 1.25 1.14 1.09 1.09 1.14 1.16
0.66 0.64 0.64 0.57 0.57 0.62 0.66 0.70 0.71 0.77 0.82 0.82 0.75 0.69 0.63 0.60 0.67 0.75 0.86 0.88 0.81 0.77 0.74 0.72 0.75 0.82 0.99 1.19 1.33 1.44 1.48 1.48 1.46 1.42 1.39 1.32 1.26 1.25 1.22 1.18 1.13 1.14 1.18
0.60 0.56 0.54 0.55 0.57 0.58 0.57 0.62 0.65 0.66 0.69 0.72 0.74 0.71 0.68 0.63 0.74 0.82 0.88 0.92 0.90 0.87 0.83 0.80 0.77 0.83 0.92 1.05 1.20 1.33 1.36 1.36 1.38 1.38 1.35 1.29 1.26 1.25 1.28 1.27 1.24 1.22 1.24
0.53 0.53 0.53 0.55 0.58 0.61 0.61 0.63 0.63 0.64 0.67 0.73 0.75 0.77 0.81 0.84 0.87 0.94 0.99 0.99 0.93 0.89 0.84 0.81 0.81 0.83 0.88 0.94 1.03 1.14 1.20 1.23 1.25 1.27 1.33 1.30 1.26 1.24 1.25 1.25 1.23 1.23 1.21
0.48 0.48 0.47 0.51 0.54 0.58 0.60 0.63 0.62 0.60 0.64 0.72 0.79 0.86 0.91 0.94 0.97 1.00 0.98 0.95 0.89 0.85 0.85 0.84 0.84 0.84 0.87 0.93 0.97 0.96 0.98 1.00 1.02 1.06 1.12 1.17 1.18 1.17 1.20 1.18 1.20 1.23 1.27
0.46 0.52 0.52 0.52 0.51 0.53 0.54 0.55 0.56 0.57 0.64 0.74 0.81 0.85 0.89 0.92 0.95 0.90 0.85 0.80 0.76 0.76 0.78 0.78 0.78 0.72 0.70 0.72 0.74 0.75 0.83 0.83 0.83 0.87 0.90 0.94 0.97 1.02 1.08 1.10 1.16 1.25 1.33
0.41 0.50 0.54 0.55 0.51 0.50 0.52 0.53 0.52 0.56 0.61 0.65 0.71 0.73 0.74 0.77 0.82 0.80 0.77 0.75 0.73 0.71 0.71 0.72 0.69 0.63 0.62 0.61 0.58 0.58 0.57 0.54 0.60 0.69 0.73 0.77 0.85 0.95 1.02 1.05 1.09 1.18 1.26